Location: Byhalia Creek
(34.8270°N, 89.8040°W)
Time: 20:57:35
(UTC+00:00)

USA 234 - Pass Details

Date: 22 April 2026
Orbit: 1102 x 1106 km, 123.0° (Epoch: 4 January)

Event Time Altitude Azimuth Distance (km) Brightness Sun altitude
Rises 10:48:59 0° 149° (SSE) 3,903 6.3 -6.6°
Reaches altitude 10° 10:51:31 10° 154° (SSE) 2,948 5.6 -6.1°
Maximum altitude 10:57:52 55° 231° (SW) 1,302 3.4 -4.9°
Drops below altitude 10° 11:04:15 10° 308° (NW) 2,960 5.2 -3.7°
Sets 11:06:49 0° 313° (NW) 3,921 5.9 -3.2°
